This demonstration page uses our WeatherBlox Daily Observations layout. Learn more.

Left ArrowRight Arrow

Hourly Observations for May 19, 2020

Temp ( °F °C ) Dew Point ( °F °C ) Humidity (%) Winds ( mph kmh ) Pressure ( in mb ) Visibility ( mi km ) Precip ( " mm )
12:56 am 00:56 Clear 50 10 46 7.8 86 86 E 6 9 30.02 1017 10 16 0.00 0.00
1:56 am 01:56 Clear 49 9.4 46 7.8 90 90 E 5 7 30.01 1016 10 16 0.00 0.00
2:56 am 02:56 Clear 47 8.3 45 7.2 93 93 NE 3 6 30.00 1016 10 16 0.00 0.00
3:56 am 03:56 Clear 45 7.2 44 6.7 97 97 NNE 7 11 29.99 1016 8 13 0.00 0.00
4:56 am 04:56 Clear 44 6.7 43 6.1 96 96 NE 5 7 30.00 1016 7 11 0.00 0.00
5:56 am 05:56 Clear 45 7.2 43 6.1 93 93 N 5 7 30.00 1016 8 13 0.00 0.00
6:24 am 06:24 Mostly Cloudy 46 8 45 7 93 93 N 3 6 30.04 1017 7 11 0.00 0.00
6:56 am 06:56 Cloudy with Mist and Fog 47 8.3 46 7.8 97 97 Calm 30.01 1016 6 10 0.00 0.00
7:56 am 07:56 Cloudy 51 10.6 48 8.9 89 89 NE 3 6 30.02 1017 10 16 0.00 0.00
8:56 am 08:56 Cloudy 53 11.7 48 8.9 83 83 E 7 11 30.04 1017 10 16 0.00 0.00
9:45 am 09:45 Cloudy 54 12 48 9 82 82 ESE 6 9 30.04 1017 10 16 0.00 0.00
9:56 am 09:56 Cloudy 54 12.2 48 8.9 80 80 undefined N/A 30.04 1017 10 16 0.00 0.00
10:56 am 10:56 Cloudy 57 13.9 49 9.4 74 74 VRB 3 6 30.03 1017 10 16 0.00 0.00
11:56 am 11:56 Cloudy 59 15 49 9.4 69 69 Calm 30.02 1017 10 16 0.00 0.00
12:56 pm 12:56 Mostly Cloudy 62 16.7 50 10 65 65 undefined N/A 30.01 1016 10 16 0.00 0.00
1:15 pm 13:15 Partly Cloudy 64 18 52 11 64 64 SE 6 9 29.95 1014 10 16 0.00 0.00
1:56 pm 13:56 Sunny 66 18.9 52 11.1 61 61 ENE 6 9 29.98 1015 10 16 0.00 0.00
2:56 pm 14:56 Sunny 67 19.4 51 10.6 57 57 Calm 29.97 1015 10 16 0.00 0.00
3:56 pm 15:56 Sunny 71 21.7 53 11.7 53 53 E 8 13 29.94 1014 10 16 0.00 0.00
4:56 pm 16:56 Sunny 72 22.2 52 11.1 50 50 ESE 12 19 29.92 1013 10 16 0.00 0.00
5:56 pm 17:56 Sunny 71 21.7 52 11.1 51 51 ESE 13 20 29.92 1013 10 16 0.00 0.00
6:56 pm 18:56 Sunny 70 21.1 52 11.1 53 53 SE 10 17 29.92 1013 10 16 0.00 0.00
7:56 pm 19:56 Sunny 68 20 52 11.1 57 57 ESE 10 17 29.91 1013 10 16 0.00 0.00
8:56 pm 20:56 Clear 64 17.8 51 10.6 63 63 ESE 12 19 29.93 1013 10 16 0.00 0.00
9:56 pm 21:56 Clear 60 15.6 51 10.6 72 72 ESE 8 13 29.94 1014 10 16 0.00 0.00
10:56 pm 22:56 Clear 58 14.4 51 10.6 78 78 ESE 10 17 29.97 1015 10 16 0.00 0.00
11:56 pm 23:56 Clear 58 14.4 51 10.6 78 78 ESE 13 20 29.97 1015 10 16 0.00 0.00

Powered by AerisWeather